(162633) = 2000 SQ151 = 2002 GB162

Discovered at Socorro on 2000-09-24 by LINEAR.

Orbit

Orbit type: Main Belt

Note: WebGL enabled browser required.

epoch2023-09-13.0
epoch JD2460200.5
perihelion date2022-07-15.34394
perihelion JD2459775.84394
argument of perihelion (°)33.22493
ascending node (°)27.46178
inclination (°)6.95637
eccentricity0.1320745
perihelion distance (AU)2.0319293
Tisserand w.r.t. Jupiter3.5
ΔV w.r.t. Earth (km/sec)9.1
semimajor axis (AU)2.3411332
mean anomaly (°)116.84280
mean daily motion (°/day)0.27514690
aphelion distance (AU)2.650
period (years)3.58
P-vector [x]0.49144478
P-vector [y]0.77032304
P-vector [z]0.40630585
Q-vector [x]-0.86911596
Q-vector [y]0.40387136
Q-vector [z]0.28552649
absolute magnitude16.22
phase slope0.15
uncertainty0
referenceMPEC 2023-X02
observations used885
oppositions14
arc length (days)8251
first opposition used2000
last opposition used2023
residual rms (arc-secs)0.74
perturbers coarse indicatorM-v
perturbers precise indicator003Ek
first observation date used2000-09-22.0
last observation date used2023-04-26.0
computer nameMPCLINUX
JD of orbit computation2456937.233200
perihelion JD uncertainty (days)1.4568E-04
argument of perihelion uncertainty (°)5.4389E-05
ascending node uncertainty (°)3.9372E-05
inclination uncertainty (°)6.5643E-06
eccentricity uncertainty 5.0836E-08
perihelion distance uncertainty (AU)1.2523E-07
Minimum Orbit Intersection Distances (in AU)
for orbit epoch: 2460200.5, reference: E2023-X02
Mercury1.72128
Venus1.31387
Earth1.04678
Mars0.51587
Jupiter2.67252
Saturn6.97315
Uranus15.9939
Neptune27.7169

Observations

923 total observations over interval: 2000 09 22.33046 – 2023 04 26.143475
These data are available for download (format description).

Date (UT) J2000 RA J2000 Dec Magn Location Ref
2000 09 22.33046 02 14 45.57 +11 35 17.3 18.2 R 699 – Lowell Observatory-LONEOS MPS 30148
2000 09 22.35061 02 14 44.99 +11 35 18.6   699 – Lowell Observatory-LONEOS MPS 30148
2000 09 22.37076 02 14 44.47 +11 35 20.5   699 – Lowell Observatory-LONEOS MPS 30148
2000 09 22.39089 02 14 43.87 +11 35 23.3   699 – Lowell Observatory-LONEOS MPS 30148
2000 09 24.40942 02 13 46.29 +11 38 27.9 18.5   704 – Lincoln Laboratory ETS, New Mexico MPS 20048
2000 09 24.42389 02 13 45.85 +11 38 29.4 18.7   704 – Lincoln Laboratory ETS, New Mexico MPS 20048
2000 09 24.43831 02 13 45.40 +11 38 30.5 18.7   704 – Lincoln Laboratory ETS, New Mexico MPS 20048
2000 09 24.45275 02 13 44.96 +11 38 31.2 19.0   704 – Lincoln Laboratory ETS, New Mexico MPS 20048
2000 09 24.46716 02 13 44.40 +11 38 33.0 19.3   704 – Lincoln Laboratory ETS, New Mexico MPS 20048
2000 09 28.34322 02 11 31.05 +11 43 11.9 18.3   704 – Lincoln Laboratory ETS, New Mexico MPS 20049
2000 09 28.35876 02 11 30.43 +11 43 12.6 19.2   704 – Lincoln Laboratory ETS, New Mexico MPS 20049
2000 09 28.37438 02 11 29.80 +11 43 14.1 18.9   704 – Lincoln Laboratory ETS, New Mexico MPS 20049
2000 09 28.39002 02 11 29.10 +11 43 15.4 18.7   704 – Lincoln Laboratory ETS, New Mexico MPS 20049
2000 10 01.33883 02 09 28.05 +11 45 41.5 18.9   704 – Lincoln Laboratory ETS, New Mexico MPS 20049
2000 10 01.35391 02 09 27.31 +11 45 42.1 19.2   704 – Lincoln Laboratory ETS, New Mexico MPS 20049
2000 10 01.36900 02 09 26.64 +11 45 42.3 19.3   704 – Lincoln Laboratory ETS, New Mexico MPS 20049
2000 10 01.38408 02 09 25.89 +11 45 43.1 19.2   704 – Lincoln Laboratory ETS, New Mexico MPS 20049
2000 10 01.39916 02 09 25.25 +11 45 43.1 19.3   704 – Lincoln Laboratory ETS, New Mexico MPS 20049
2000 10 02.37927 02 08 41.36 +11 46 20.4 18.7   704 – Lincoln Laboratory ETS, New Mexico MPS 20049
2000 10 02.39422 02 08 40.64 +11 46 21.2 19.0   704 – Lincoln Laboratory ETS, New Mexico MPS 20049
2000 10 02.40970 02 08 39.91 +11 46 21.9 18.9   704 – Lincoln Laboratory ETS, New Mexico MPS 20049
2000 10 02.42462 02 08 39.20 +11 46 22.1 18.8   704 – Lincoln Laboratory ETS, New Mexico MPS 20049
2000 10 02.43973 02 08 38.51 +11 46 22.6 18.9   704 – Lincoln Laboratory ETS, New Mexico MPS 20049
2000 10 07.30564 02 04 37.20 +11 48 00.2 18.1 R 699 – Lowell Observatory-LONEOS MPS 21286
2000 10 07.34755 02 04 34.81 +11 48 00.8   699 – Lowell Observatory-LONEOS MPS 21286
2000 10 07.38950 02 04 32.46 +11 48 00.5   699 – Lowell Observatory-LONEOS MPS 21286
2000 10 07.43152 02 04 30.07 +11 48 00.2   699 – Lowell Observatory-LONEOS MPS 21286
2000 10 22.03339 01 49 39.12 +11 41 55.4 17.8 R 113 – Volkssternwarte Drebach, Schoenbrunn MPS 21286
2000 10 22.08441 01 49 35.74 +11 41 52.0 18.1 R 113 – Volkssternwarte Drebach, Schoenbrunn MPS 21286
2000 10 24.35664 01 47 07.09 +11 40 03.6 15.6   704 – Lincoln Laboratory ETS, New Mexico MPS 21286
2000 10 24.37008 01 47 06.18 +11 40 03.4 16.0   704 – Lincoln Laboratory ETS, New Mexico MPS 21286
2000 10 24.38352 01 47 05.28 +11 40 02.6 15.6   704 – Lincoln Laboratory ETS, New Mexico MPS 21286
2000 10 26.30147 01 45 00.46 +11 38 26.0 18.6   704 – Lincoln Laboratory ETS, New Mexico MPS 21286
2000 10 26.31526 01 44 59.55 +11 38 25.5 18.1   704 – Lincoln Laboratory ETS, New Mexico MPS 21286
2000 10 26.32929 01 44 58.58 +11 38 24.0 18.7   704 – Lincoln Laboratory ETS, New Mexico MPS 21286
2000 10 26.34439 01 44 57.64 +11 38 23.2 18.6   704 – Lincoln Laboratory ETS, New Mexico MPS 21286
2000 10 27.32925 01 43 53.91 +11 37 33.9 19.3 V 691 – Steward Observatory, Kitt Peak-Spacewatch MPS 21286
2000 10 27.35097 01 43 52.46 +11 37 32.6 19.6 V 691 – Steward Observatory, Kitt Peak-Spacewatch MPS 21286
2000 10 27.38341 01 43 50.26 +11 37 31.1 19.0 V 691 – Steward Observatory, Kitt Peak-Spacewatch MPS 21286
2000 10 31.21775 01 39 47.57 +11 34 22.9 18.7   704 – Lincoln Laboratory ETS, New Mexico MPS 21286
2000 10 31.23224 01 39 46.61 +11 34 22.2 18.5   704 – Lincoln Laboratory ETS, New Mexico MPS 21286
2000 10 31.24623 01 39 45.72 +11 34 22.4 19.0   704 – Lincoln Laboratory ETS, New Mexico MPS 21286
2000 10 31.26018 01 39 44.85 +11 34 21.2 19.2   704 – Lincoln Laboratory ETS, New Mexico MPS 21286
2000 10 31.27443 01 39 43.89 +11 34 20.6 18.3   704 – Lincoln Laboratory ETS, New Mexico MPS 21286
2000 11 01.27245 01 38 42.50 +11 33 34.6 18.6   704 – Lincoln Laboratory ETS, New Mexico MPS 21286
2000 11 01.28641 01 38 41.59 +11 33 34.7 18.4   704 – Lincoln Laboratory ETS, New Mexico MPS 21286
2000 11 01.28978 01 38 41.42 +11 33 34.7 19.2   704 – Lincoln Laboratory ETS, New Mexico MPS 21286
2000 11 01.30030 01 38 40.70 +11 33 34.4 18.5   704 – Lincoln Laboratory ETS, New Mexico MPS 21286
2000 11 01.30462 01 38 40.38 +11 33 33.4 19.3   704 – Lincoln Laboratory ETS, New Mexico MPS 21286
2000 11 01.31418 01 38 39.82 +11 33 33.6 18.6   704 – Lincoln Laboratory ETS, New Mexico MPS 21286
2000 11 01.31892 01 38 39.50 +11 33 33.3 18.9   704 – Lincoln Laboratory ETS, New Mexico MPS 21286
2000 11 01.32804 01 38 38.98 +11 33 32.8 19.0   704 – Lincoln Laboratory ETS, New Mexico MPS 21286
2000 11 02.22906 01 37 44.65 +11 32 54.2 19.1   704 – Lincoln Laboratory ETS, New Mexico MPS 21286
2000 11 02.23411 01 37 44.37 +11 32 54.6 18.8   704 – Lincoln Laboratory ETS, New Mexico MPS 21286
2000 11 02.24262 01 37 43.82 +11 32 53.7 18.9   704 – Lincoln Laboratory ETS, New Mexico MPS 21286
2000 11 02.24809 01 37 43.51 +11 32 53.4 18.9   704 – Lincoln Laboratory ETS, New Mexico MPS 21286
2000 11 02.25615 01 37 42.94 +11 32 52.8 18.8   704 – Lincoln Laboratory ETS, New Mexico MPS 21286
2000 11 02.26203 01 37 42.57 +11 32 53.9 19.4   704 – Lincoln Laboratory ETS, New Mexico MPS 21286
2000 11 02.27025 01 37 42.03 +11 32 53.0 18.7   704 – Lincoln Laboratory ETS, New Mexico MPS 21286
2000 11 02.27795 01 37 41.61 +11 32 52.7 18.9   704 – Lincoln Laboratory ETS, New Mexico MPS 21286
2000 11 03.22000 01 36 45.62 +11 32 13.7 18.5   704 – Lincoln Laboratory ETS, New Mexico MPS 21286
2000 11 03.23424 01 36 44.69 +11 32 13.6 18.5   704 – Lincoln Laboratory ETS, New Mexico MPS 21286
2000 11 03.24884 01 36 43.80 +11 32 12.8 18.8   704 – Lincoln Laboratory ETS, New Mexico MPS 21286
2000 11 03.26360 01 36 42.89 +11 32 12.2 18.5   704 – Lincoln Laboratory ETS, New Mexico MPS 21286
2000 11 03.27824 01 36 42.02 +11 32 11.6 19.2   704 – Lincoln Laboratory ETS, New Mexico MPS 21286
2000 11 20.11472 01 23 44.66 +11 32 48.3 18.6 R 699 – Lowell Observatory-LONEOS MPS 22506
2000 11 20.13808 01 23 43.86 +11 32 49.7   699 – Lowell Observatory-LONEOS MPS 22506
2000 11 20.16148 01 23 43.11 +11 32 52.0   699 – Lowell Observatory-LONEOS MPS 22506
2000 11 20.18489 01 23 42.28 +11 32 53.0   699 – Lowell Observatory-LONEOS MPS 22506
2000 11 20.21689 01 23 41.21 +11 32 54.8 18.6   704 – Lincoln Laboratory ETS, New Mexico MPS 22506
2000 11 20.23177 01 23 40.69 +11 32 55.9 18.8   704 – Lincoln Laboratory ETS, New Mexico MPS 22506
2000 11 20.24664 01 23 40.18 +11 32 56.9 18.9   704 – Lincoln Laboratory ETS, New Mexico MPS 22506
2000 11 20.26149 01 23 39.69 +11 32 57.2 19.0   704 – Lincoln Laboratory ETS, New Mexico MPS 22506
2000 11 20.27635 01 23 39.24 +11 32 57.7 19.3   704 – Lincoln Laboratory ETS, New Mexico MPS 22506
2000 11 27.17144 01 21 00.11 +11 42 39.6 19.0   704 – Lincoln Laboratory ETS, New Mexico MPS 22506
2000 11 27.18752 01 20 59.83 +11 42 42.4 19.2   704 – Lincoln Laboratory ETS, New Mexico MPS 22506
2000 11 27.20502 01 20 59.57 +11 42 44.9 19.0   704 – Lincoln Laboratory ETS, New Mexico MPS 22506
2000 11 27.22154 01 20 59.19 +11 42 46.4 19.2   704 – Lincoln Laboratory ETS, New Mexico MPS 22506
2000 11 27.23814 01 20 58.95 +11 42 49.7 19.4   704 – Lincoln Laboratory ETS, New Mexico MPS 22506
2000 12 17.08871 01 22 58.63 +12 49 00.6 19.6 R 699 – Lowell Observatory-LONEOS MPS 25181
2000 12 17.11211 01 22 59.18 +12 49 06.7   699 – Lowell Observatory-LONEOS MPS 25181
2000 12 17.13546 01 22 59.81 +12 49 12.1   699 – Lowell Observatory-LONEOS MPS 25181
2000 12 17.15885 01 23 00.33 +12 49 19.5   699 – Lowell Observatory-LONEOS MPS 25181
2002 03 16.37989 13 14 17.12 -04 08 37.0 19.2   704 – Lincoln Laboratory ETS, New Mexico MPS 57579
